Regional Weather Roundup
Issued by NWS Newport/Morehead, NC

Current Version | Previous Version | Graphics & Text | Print | Product List | Glossary Off
Versions: 1 2 3 4 5 6 7 8 9 10 11 12 13 14 15 16 17 18 19 20 21 22 23 24 25 26 27 28 29 30 31 32 33 34 35 36 37 38 39 40 41 42 43 44 45 46 47 48 49 50

000
ASUS42 KMHX 301025
RWRMHX
WEATHER ROUNDUP FOR EASTERN NORTH CAROLINA
NATIONAL WEATHER SERVICE NEWPORT/MOREHEAD CITY NC
600 AM EDT MON MAY 30 2016

NOTE: "FAIR" INDICATES FEW OR NO CLOUDS BELOW 12,000 FEET
WITH NO SIGNIFICANT WEATHER AND/OR OBSTRUCTIONS TO VISIBILITY

NCZ015>017-031-032-045>047-102-103-301100-
NORTH COAST

CITY           SKY/WX    TMP DP  RH WIND       PRES   REMARKS
EDENTON        CLOUDY   N/A N/A N/A SE5       30.01S
ELIZABETH CITY LGT RAIN  71  70  96 SE7       30.01S
KITTY HAWK     RAIN      72  71  96 CALM      30.01S
MANTEO         NOT AVBL

$$

NCZ045>047-081-094-103-104-301100-
CENTRAL COAST

CITY           SKY/WX    TMP DP  RH WIND       PRES   REMARKS
FRISCO         HVY RAIN  71  70  96 SW7       30.01S FOG

$$

NCZ095-097-098-100-101-301100-
SOUTHERN COAST

CITY           SKY/WX    TMP DP  RH WIND       PRES   REMARKS
BEAUFORT       LGT RAIN  72  70  93 SW8       30.00R FOG
CEDAR ISLAND   NOT AVBL
JACKSONVILLE   PTCLDY    74  71  91 SE6       29.96S
PINEY ISLAND   PTSUNNY  N/A N/A N/A SE6       29.99
WILMINGTON     CLOUDY    71  70  96 E5        29.94F


$$

NCZ011>013-027>030-043-044-078>080-089-090>093-098-301100-
COASTAL PLAIN

CITY           SKY/WX    TMP DP  RH WIND       PRES   REMARKS
AHOSKIE        CLOUDY    71  71  98 CALM      30.00S FOG
CLINTON        CLOUDY    72  72 100 E3        29.97S FOG
ELIZABETHTOWN  CLOUDY    70  70 100 CALM      29.95S FOG
GOLDSBORO      MOCLDY    72  72 100 E6        29.96S
GREENVILLE     CLOUDY    72  72 100 CALM      30.01R
HAVELOCK       CLOUDY    72  70  93 SE8       29.99S
KENANSVILLE    CLOUDY    70  69  98 CALM      29.98S FOG
KINSTON        CLOUDY    72  71  97 CALM      29.99S
NEW BERN       LGT RAIN  72  69  90 E3        29.99S
RICHLANDS      LGT RAIN  72  72 100 CALM      29.98R FOG
ROCKY MOUNT    CLOUDY    71  70  96 CALM      29.99S
WASHINGTON     CLOUDY    72  71  97 CALM      29.99S
WHITEVILLE     CLOUDY    71  70  97 NE3       29.93S

$$

AMZ130-135-150-152-154-156-158-170-250-252-270-ANZ085-086-088-633-658-670-301100-
MARINE OBSERVATIONS

STATION/POSITION TIME  TEMP    WIND        PRES    WAVE   SWELL
                       AIR SEA DIR/SP/G            HT/PER HT/PER
                 (UTC) (F)     (DEG/KT/KT) (MB)    (FT/S) (FT/S)
CHESAPEAKE LIGHT 1000   69     180/ 17/ 18 1016.8
64 E VA BEACH    0950   67 63  160/  8/  8 1016.9    5/ 6   5/ 6
DUCK             1000   71 58  240/  4/  6 1015.9
2 E DUCK         0911      62                N/A     3/ 7
OREGON INLET     1000   71 78  110/  3/  5 1016.4
13E OREGON INLT  1000      66                N/A     5/ 6   5/ 6
HATTERAS CG      1000   72 77  130/  5/  6 1015.8
DIAMOND BUOY     0950   75 81  150/ 17/ 23 1015.9    5/ 9   3/ 9
CAPE LOOKOUT     1000   73     250/  7/  8 1015.3
BEAUFORT LAB     1000   72 75  210/  8/ 14 1015.0
30 SE NEW RVR IN 0925      75                N/A     7/ 6
27 SE WRIGHTSVLE 1008   76 76  190/  4/ 12 1014.1
5 SE WRIGHTSVLE  0908   76 75  150/  4/  8 1014.6
225 S CAPE HAT   0950   73 76  140/  8/ 10 1016.2    4/ 8   3/ 8
41 SE CHARLESTON 0950   74 77  220/ 16/ 17 1012.2    5/ 6   2/ 9

$$




USA.gov is the U.S. government's official web portal to all federal, state and local government web resources and services.